Afton Municipal Airport, WY

10:09 AM MST on December 11, 2019 (GMT -0700)
Afton Municipal

Weather History for KAFO - October, 2019

Change the Weather History Date:

Friday, October 25, 2019

  Actual Average Record
Temperature  
Mean Temperature 37 °F -  
Max Temperature 53 °F 55 °F 69 °F (2014)
Min Temperature 21 °F 23 °F 19 °F (2017)
Degree Days  
Heating Degree Days 28    
Moisture  
Dew Point 24 °F    
Average Humidity 69    
Maximum Humidity 93    
Minimum Humidity 32    
Precipitation  
Precipitation 0.00 in - - ()
Sea Level Pressure  
Sea Level Pressure 30.35 in    
Wind  
Wind Speed 2 mph ()    
Max Wind Speed 9 mph    
Max Gust Speed -    
Visibility 10.0 miles    
Events      
Averages and records for this station are not official NWS values.
T = Trace of Precipitation, MM = Missing Value Source: Averaged Metar Reports

Daily Weather History Graph

Daily Weather History Graph

Search for Another Location

Airport or City:

Astronomy

Oct. 25, 2019 Rise Set
Actual Time 7:48 AM MDT 6:26 PM MDT
Civil Twilight 7:19 AM MDT 6:55 PM MDT
Nautical Twilight 6:46 AM MDT 7:28 PM MDT
Astronomical Twilight 6:14 AM MDT 8:00 PM MDT
Moon 4:29 AM MDT (10/25) 5:35 PM MDT (10/25)
Length of Visible Light 11h 35m
Length of Day
10h 37m
Waning Crescent, 8% of the Moon is Illuminated
Oct 25
Waning Crescent
Oct 27
New
Nov 4
First Quarter
Nov 12
Full
Nov 19
Last Quarter

Hourly Weather History & Observations

Time (MDT) Temp. Windchill Dew Point Humidity Pressure Visibility Wind Dir Wind Speed Gust Speed Precip Events Conditions
12:15 AM 28.4 °F 23.3 °F 21.2 °F 74% 30.49 in 10.0 mi South 4.6 mph - N/A   Clear
12:35 AM 26.6 °F - 21.2 °F 80% 30.49 in 10.0 mi Calm Calm - N/A   Clear
12:55 AM 24.8 °F 20.5 °F 21.2 °F 86% 30.48 in 10.0 mi SSW 3.5 mph - N/A   Clear
1:15 AM 26.6 °F 19.1 °F 21.2 °F 80% 30.48 in 10.0 mi South 6.9 mph - N/A   Clear
1:35 AM 26.6 °F - 21.2 °F 80% 30.48 in 10.0 mi Calm Calm - N/A   Clear
1:55 AM 26.6 °F 21.2 °F 21.2 °F 80% 30.49 in 10.0 mi SE 4.6 mph - N/A   Scattered Clouds
2:15 AM 28.4 °F 23.3 °F 21.2 °F 74% 30.49 in 10.0 mi SE 4.6 mph - N/A   Mostly Cloudy
2:35 AM 28.4 °F 24.6 °F 23.0 °F 80% 30.49 in 10.0 mi South 3.5 mph - N/A   Overcast
2:55 AM 28.4 °F 23.3 °F 23.0 °F 80% 30.49 in 10.0 mi South 4.6 mph - N/A   Overcast
3:15 AM 28.4 °F 24.6 °F 23.0 °F 80% 30.49 in 10.0 mi South 3.5 mph - N/A   Overcast
3:35 AM 28.4 °F - 23.0 °F 80% 30.49 in 10.0 mi Calm Calm - N/A   Mostly Cloudy
3:55 AM 28.4 °F - 23.0 °F 80% 30.47 in 10.0 mi Calm Calm - N/A   Scattered Clouds
4:15 AM 26.6 °F - 23.0 °F 86% 30.47 in 10.0 mi Calm Calm - N/A   Clear
4:35 AM 23.0 °F - 21.2 °F 93% 30.47 in 10.0 mi Calm Calm - N/A   Clear
4:55 AM 23.0 °F 18.4 °F 21.2 °F 93% 30.47 in 10.0 mi SSW 3.5 mph - N/A   Clear
5:15 AM 21.2 °F - 19.4 °F 93% 30.47 in 10.0 mi Calm Calm - N/A   Clear
5:35 AM 21.2 °F 12.6 °F 19.4 °F 93% 30.47 in 10.0 mi South 6.9 mph - N/A   Clear
5:55 AM 23.0 °F 18.4 °F 19.4 °F 86% 30.47 in 10.0 mi SE 3.5 mph - N/A   Clear
6:15 AM 21.2 °F - 19.4 °F 93% 30.47 in 10.0 mi Calm Calm - N/A   Clear
6:35 AM 21.2 °F - 19.4 °F 93% 30.47 in 10.0 mi Calm Calm - N/A   Clear
6:55 AM 21.2 °F 16.4 °F 19.4 °F 93% 30.47 in 10.0 mi SSE 3.5 mph - N/A   Clear
7:15 AM 21.2 °F - 19.4 °F 93% 30.47 in 10.0 mi Calm Calm - N/A   Clear
7:35 AM 21.2 °F - 17.6 °F 86% 30.47 in 10.0 mi Calm Calm - N/A   Clear
7:55 AM 21.2 °F 14.9 °F 17.6 °F 86% 30.47 in 10.0 mi South 4.6 mph - N/A   Clear
8:15 AM 21.2 °F - 17.6 °F 86% 30.47 in 10.0 mi Calm Calm - N/A   Clear
8:35 AM 21.2 °F - 17.6 °F 86% 30.47 in 10.0 mi Calm Calm - N/A   Clear
8:55 AM 24.8 °F - 19.4 °F 80% 30.47 in 10.0 mi Calm Calm - N/A   Clear
9:15 AM 28.4 °F - 21.2 °F 74% 30.47 in 10.0 mi Calm Calm - N/A   Clear
9:35 AM 30.2 °F 26.7 °F 21.2 °F 69% 30.47 in 10.0 mi SSW 3.5 mph - N/A   Clear
9:55 AM 32.0 °F - 21.2 °F 64% 30.47 in 10.0 mi Calm Calm - N/A   Clear
10:15 AM 32.0 °F - 21.2 °F 64% 30.46 in 10.0 mi Calm Calm - N/A   Clear
10:35 AM 33.8 °F - 21.2 °F 60% 30.46 in 10.0 mi Calm Calm - N/A   Clear
10:55 AM 33.8 °F - 21.2 °F 60% 30.45 in 10.0 mi Calm Calm - N/A   Clear
11:15 AM 37.4 °F - 23.0 °F 56% 30.44 in 10.0 mi Calm Calm - N/A   Clear
11:35 AM 37.4 °F - 21.2 °F 52% 30.43 in 10.0 mi Calm Calm - N/A   Clear
11:55 AM 39.2 °F - 23.0 °F 52% 30.41 in 10.0 mi Calm Calm - N/A   Clear
12:15 PM 42.8 °F - 21.2 °F 42% 30.40 in 10.0 mi Calm Calm - N/A   Clear
12:35 PM 42.8 °F - 21.2 °F 42% 30.39 in 10.0 mi Calm Calm - N/A   Clear
12:55 PM 44.6 °F - 23.0 °F 43% 30.37 in 10.0 mi Calm Calm - N/A   Clear
1:35 PM 46.4 °F - 21.2 °F 37% 30.34 in 10.0 mi Calm Calm - N/A   Clear
1:55 PM 50.0 °F - 21.2 °F 32% 30.33 in 10.0 mi Calm Calm - N/A   Clear
2:15 PM 50.0 °F - 21.2 °F 32% 30.31 in 10.0 mi Calm Calm - N/A   Clear
2:35 PM 51.8 °F - 23.0 °F 33% 30.31 in 10.0 mi Calm Calm - N/A   Clear
2:55 PM 53.6 °F - 24.8 °F 33% 30.29 in 10.0 mi Calm Calm - N/A   Clear
3:15 PM 53.6 °F - 26.6 °F 35% 30.28 in 10.0 mi West 3.5 mph - N/A   Clear
3:35 PM 53.6 °F - 26.6 °F 35% 30.27 in 10.0 mi Calm Calm - N/A   Clear
3:55 PM 53.6 °F - 26.6 °F 35% 30.27 in 10.0 mi WSW 3.5 mph - N/A   Clear
4:15 PM 53.6 °F - 26.6 °F 35% 30.25 in 10.0 mi Calm Calm - N/A   Clear
4:35 PM 53.6 °F - 26.6 °F 35% 30.25 in 10.0 mi Calm Calm - N/A   Clear
4:55 PM 53.6 °F - 26.6 °F 35% 30.24 in 10.0 mi Calm Calm - N/A   Clear
5:15 PM 53.6 °F - 28.4 °F 38% 30.23 in 10.0 mi Calm Calm - N/A   Clear
5:35 PM 53.6 °F - 30.2 °F 41% 30.21 in 10.0 mi SSW 3.5 mph - N/A   Clear
5:55 PM 50.0 °F - 32.0 °F 50% 30.21 in 10.0 mi Calm Calm - N/A   Clear
6:15 PM 44.6 °F 40.7 °F 32.0 °F 61% 30.20 in 10.0 mi South 6.9 mph - N/A   Clear
6:35 PM 42.8 °F 41.1 °F 30.2 °F 61% 30.20 in 10.0 mi SE 3.5 mph - N/A   Clear
6:55 PM 42.8 °F - 30.2 °F 61% 30.20 in 10.0 mi North - - N/A   Clear
7:15 PM 41.0 °F 38.0 °F 30.2 °F 65% 30.19 in 10.0 mi South 4.6 mph - N/A   Clear
7:35 PM 39.2 °F 33.0 °F 30.2 °F 70% 30.19 in 10.0 mi South 9.2 mph - N/A   Clear
7:55 PM 37.4 °F 32.1 °F 30.2 °F 75% 30.19 in 10.0 mi SSW 6.9 mph - N/A   Clear
8:15 PM 35.6 °F 30.7 °F 30.2 °F 81% 30.17 in 10.0 mi South 5.8 mph - N/A   Clear
8:35 PM 33.8 °F 30.8 °F 30.2 °F 87% 30.17 in 10.0 mi South 3.5 mph - N/A   Clear
8:55 PM 33.8 °F 30.8 °F 30.2 °F 87% 30.17 in 10.0 mi South 3.5 mph - N/A   Clear
9:15 PM 32.0 °F 27.5 °F 28.4 °F 87% 30.16 in 10.0 mi WSW 4.6 mph - N/A   Clear
9:35 PM 32.0 °F - 28.4 °F 87% 30.15 in 10.0 mi Calm Calm - N/A   Clear
9:55 PM 30.2 °F - 28.4 °F 93% 30.15 in 10.0 mi Calm Calm - N/A   Clear
10:15 PM 32.0 °F - 28.4 °F 87% 30.14 in 10.0 mi Calm Calm - N/A   Clear
10:35 PM 32.0 °F - 28.4 °F 87% 30.14 in 10.0 mi Calm Calm - N/A   Clear
10:55 PM 32.0 °F - 28.4 °F 87% 30.14 in 10.0 mi Calm Calm - N/A   Clear
11:15 PM 32.0 °F - 28.4 °F 87% 30.13 in 10.0 mi Calm Calm - N/A   Clear
11:35 PM 28.4 °F 24.6 °F 26.6 °F 93% 30.12 in 10.0 mi SSE 3.5 mph - N/A   Clear
11:55 PM 30.2 °F - 26.6 °F 86% 30.11 in 10.0 mi Calm Calm - N/A   Clear